Tracking 29892 objects as of 21-Nov-2024
HD Live streaming from Space Station
objects crossing your sky now

FENGYUN 1C DEB

Track FENGYUN 1C DEB now!
10-day predictions


NORAD ID: 37003
Int'l Code: 1999-025ECK
Perigee: 846.2 km
Apogee: 989.1 km
Inclination: 98.9 °
Period: 103.2 minutes
Semi major axis: 7288 km
RCS: 0.0127 m2 (small)
Launch date: May 10, 1999
Source: People's Republic of China (PRC)
Launch site: Taiyaun Space Center, China (TSC)

Note: This is SATELLITE DEBRIS
Your satellite tracking list
Your tracking list is empty




NASA's NSSDC Master Catalog

Two Line Element Set (TLE):
1 37003U 99025ECK 24321.33501303  .00001447  00000-0  10587-2 0  9997
2 37003  98.8861 353.6292 0098019 160.4958 213.2030 13.95192212551978
Source of the keplerian elements: AFSPC